Home > Weather > Glace Bay > Past weeks

Flag for Canada Weather for the Past 2 Weeks in Glace Bay, Nova Scotia, Canada

Now
37 °F

Partly sunny.


Feels Like: 30 °F
Forecast: 36 / 46 °F
Wind: 12 mph from South

Location: Sydney

Current Time: May 2, 2016 at 9:21:29 PM

Latest Report: May 2, 2016 at 8:00 PM


Visibility: 15 mi

Pressure: 30.23 "Hg

Humidity: 87%

Dew Point: 34 °F

Location of Glace BayLocation

Historic Weather in Glace Bay — Graph

°F

Glace Bay Temperature Yesterday

Maximum temperature yesterday: 52 °F (at 3:00 PM)
Minimum temperature yesterday: 27 °F (at 6:00 AM)
Average temperature yesterday: 39 °F

High & Low Weather Summary for the Past Weeks

 TemperatureHumidityPressure
High54 °F (Apr 23, 1:00 PM)100% (Apr 20, 6:00 AM)30.30 "Hg (Apr 20, 6:00 AM)
Low23 °F (Apr 26, 4:00 AM)29% (Apr 29, 4:00 PM)29.55 "Hg (Apr 21, 1:00 PM)
Average36 °F74%29.93 "Hg
* Reported Apr 17 8:00 PM — May 2 8:00 PM, Glace Bay, Weather by CustomWeather, © 2016

Note: Actual official high and low records may vary slightly from our data, if they occured in-between our weather recording intervals... More about our weather records

Advertising

Glace Bay Weather History for the Previous 24 Hours

Scroll right to see more
 ConditionsComfort  
Time TempWeatherWind HumidityBarometerVisibility
8:00 PM
Mon, May 2
37 °FPartly sunny.12 mph87%30.23 "Hg15 mi
7:00 PM41 °FPartly sunny.15 mph70%30.22 "Hg15 mi
6:00 PM45 °FPartly sunny.14 mph66%30.21 "Hg15 mi
5:00 PM48 °FBroken clouds.15 mph54%30.24 "Hg15 mi
4:00 PM50 °FPartly sunny.13 mph50%30.23 "Hg15 mi
3:00 PM50 °FBroken clouds.14 mph50%30.23 "Hg15 mi
2:00 PM52 °FBroken clouds.14 mph50%30.24 "Hg15 mi
1:00 PM52 °FBroken clouds.12 mph47%30.25 "Hg15 mi
12:00 PM52 °FScattered clouds.14 mph54%30.26 "Hg15 mi
11:00 AM48 °FPartly sunny.9 mph58%30.27 "Hg15 mi
10:00 AM43 °FPartly sunny.8 mph76%30.28 "Hg15 mi
9:00 AM37 °FPartly sunny.7 mph93%30.29 "Hg15 mi
8:00 AM36 °FPartly sunny.6 mph100%30.29 "Hg15 mi
7:00 AM32 °FIce fog.6 mph100%30.28 "Hg2 mi
6:00 AM30 °FPassing clouds.5 mph100%30.27 "Hg8 mi
5:00 AM32 °FIce fog.5 mph100%30.27 "Hg1 mi
4:00 AM30 °FIce fog.5 mph100%30.26 "Hg1 mi
3:00 AM32 °FFog.6 mph93%30.26 "Hg1 mi
2:00 AM32 °FFog.5 mph100%30.27 "Hg1 mi
1:00 AM34 °FFog.3 mph93%30.29 "Hg1 mi
12:00 AM32 °FFog.6 mph100%30.29 "Hg1 mi
11:00 PM
Sun, May 1
32 °FPassing clouds.6 mph93%30.30 "Hg15 mi
10:00 PM32 °FClear.5 mph93%30.30 "Hg15 mi
9:00 PM36 °FScattered clouds.5 mph87%30.30 "Hg15 mi
Weather by CustomWeather, © 2016

See weather overviewHow to use our weather pages